Tracking 33176 objects as of 13-Feb-2026
HD Live streaming from Space Station
objects crossing your sky now

FLOCK 4H 12

Track FLOCK 4H 12 now!
10-day predictions
FLOCK 4H 12 is classified as:


NORAD ID: 66715
Int'l Code: 2025-276BB
Perigee: 514.1 km
Apogee: 518.6 km
Inclination: 97.4 °
Period: 94.8 minutes
Semi major axis: 6887 km
RCS: Unknown
Launch date: November 28, 2025
Source: United States (US)
Launch site: AIR FORCE WESTERN TEST RANGE (AFWTR)
Your satellite tracking list
Your tracking list is empty




NASA's NSSDC Master Catalog

Two Line Element Set (TLE):
1 66715U 25276BB  26043.81193569  .00009510  00000-0  45893-3 0  9991
2 66715  97.4314 119.5430 0003203  63.5025 296.6537 15.18884505 11855
Source of the keplerian elements: AFSPC